• In Russia
  • List of Countries
  • For 7 days
  • Water Temperature
  • Satellite Maps
  • Weather Map
  • Weather Widgets
  • user-avatar
    Login

    Hourly Weather Kranevo

    Today, 21 November, Wednesday

    Time Temperature Precipitation Wind Pressure Humidity
    00:00 +6°C° 0.7 mm 5 mps 759 mmHg 90%
    01:00 +6°C° 0.7 mm 5 mps 759 mmHg 91%
    02:00 +6°C° 0.7 mm 5 mps 759 mmHg 92%
    03:00 +5°C° 0.7 mm 6 mps 758 mmHg 93%
    04:00 +7°C° 0.7 mm 6 mps 758 mmHg 93%
    05:00 +7°C° 0.7 mm 6 mps 757 mmHg 94%
    06:00 +7°C° 1 mm 6 mps 757 mmHg 94%
    07:00 +6°C° 1 mm 7 mps 757 mmHg 94%
    08:00 +6°C° 1 mm 7 mps 756 mmHg 94%
    09:00 +8°C° 1.5 mm 7 mps 756 mmHg 94%
    10:00 +8°C° 1.5 mm 7 mps 756 mmHg 94%
    11:00 +8°C° 1.5 mm 7 mps 756 mmHg 94%
    12:00 +7°C° 1.5 mm 8 mps 755 mmHg 93%
    13:00 +7°C° 1.5 mm 8 mps 755 mmHg 93%
    14:00 +7°C° 1.5 mm 8 mps 755 mmHg 93%
    15:00 +7°C° 1.3 mm 8 mps 755 mmHg 93%
    16:00 +7°C° 1.3 mm 9 mps 755 mmHg 92%
    17:00 +7°C° 1.3 mm 9 mps 755 mmHg 92%
    18:00 +7°C° 1 mm 9 mps 755 mmHg 91%
    19:00 +7°C° 1 mm 9 mps 756 mmHg 91%
    20:00 +7°C° 1 mm 9 mps 756 mmHg 90%
    21:00 +6°C° 1.3 mm 9 mps 756 mmHg 90%
    22:00 +6°C° 1.3 mm 9 mps 756 mmHg 90%
    23:00 +6°C° 1.3 mm 9 mps 756 mmHg 90%

    Tomorrow, 22 November, Thursday

    Time Temperature Precipitation Wind Pressure Humidity
    00:00 +6°C° 1.1 mm 9 mps 757 mmHg 90%
    01:00 +5°C° 1.1 mm 9 mps 757 mmHg 89%
    02:00 +5°C° 1.1 mm 9 mps 757 mmHg 89%
    03:00 +5°C° 0.6 mm 9 mps 758 mmHg 88%
    04:00 +5°C° 0.6 mm 9 mps 758 mmHg 88%
    05:00 +3°C° 0.6 mm 9 mps 758 mmHg 87%
    06:00 +3°C° 0.5 mm 9 mps 759 mmHg 86%
    07:00 +3°C° 0.5 mm 9 mps 759 mmHg 86%
    08:00 +4°C° 0.5 mm 8 mps 760 mmHg 85%
    09:00 +4°C° 0.1 mm 8 mps 760 mmHg 84%
    10:00 +4°C° 0.1 mm 8 mps 761 mmHg 82%
    11:00 +4°C° 0.1 mm 8 mps 761 mmHg 81%
    12:00 +4°C° 0 mm 7 mps 761 mmHg 79%
    13:00 +4°C° 0 mm 7 mps 761 mmHg 77%
    14:00 +4°C° 0 mm 7 mps 761 mmHg 75%
    15:00 +4°C° 0 mm 7 mps 762 mmHg 74%
    16:00 +3°C° 0 mm 6 mps 762 mmHg 73%
    17:00 +3°C° 0 mm 6 mps 762 mmHg 73%
    18:00 +2°C° 0 mm 6 mps 763 mmHg 72%
    19:00 +2°C° 0 mm 5 mps 763 mmHg 72%
    20:00 +1°C° 0 mm 5 mps 764 mmHg 72%
    21:00 +1°C° 0 mm 5 mps 764 mmHg 73%
    22:00 0°C° 0 mm 5 mps 764 mmHg 74%
    23:00 0°C° 0 mm 4 mps 764 mmHg 75%

    Day after tomorrow, 23 November, Friday

    Time Temperature Precipitation Wind Pressure Humidity
    00:00 0°C° 0 mm 5 mps 764 mmHg 77%
    01:00 -1°C° 0 mm 5 mps 764 mmHg 78%
    02:00 -1°C° 0 mm 5 mps 764 mmHg 80%
    03:00 -1°C° 0 mm 5 mps 765 mmHg 80%
    04:00 -2°C° 0 mm 4 mps 765 mmHg 80%
    05:00 -2°C° 0 mm 4 mps 765 mmHg 80%
    06:00 -2°C° 0 mm 4 mps 765 mmHg 79%
    07:00 -2°C° 0 mm 4 mps 766 mmHg 78%
    08:00 -2°C° 0 mm 4 mps 766 mmHg 77%
    09:00 -1°C° 0 mm 4 mps 766 mmHg 70%
    10:00 +1°C° 0 mm 4 mps 767 mmHg 63%
    11:00 +3°C° 0 mm 4 mps 767 mmHg 56%
    12:00 +3°C° 0 mm 4 mps 767 mmHg 54%
    13:00 +4°C° 0 mm 4 mps 766 mmHg 52%
    14:00 +5°C° 0 mm 4 mps 766 mmHg 50%
    15:00 +4°C° 0 mm 4 mps 766 mmHg 54%
    16:00 +3°C° 0 mm 4 mps 767 mmHg 59%
    17:00 +1°C° 0 mm 4 mps 767 mmHg 63%
    18:00 +1°C° 0 mm 4 mps 767 mmHg 64%
    19:00 +1°C° 0 mm 3 mps 767 mmHg 66%
    20:00 +1°C° 0 mm 3 mps 767 mmHg 68%
    21:00 +1°C° 0 mm 3 mps 767 mmHg 68%
    22:00 +1°C° 0 mm 3 mps 767 mmHg 69%
    23:00 0°C° 0 mm 3 mps 767 mmHg 69%

    24 November, Saturday

    Time Temperature Precipitation Wind Pressure Humidity
    00:00 0°C° 0 mm 3 mps 767 mmHg 70%
    01:00 0°C° 0 mm 3 mps 767 mmHg 70%
    02:00 0°C° 0 mm 3 mps 767 mmHg 71%
    03:00 0°C° 0 mm 3 mps 766 mmHg 71%
    04:00 0°C° 0 mm 3 mps 766 mmHg 71%
    05:00 0°C° 0 mm 3 mps 766 mmHg 71%
    06:00 +1°C° 0 mm 2 mps 766 mmHg 71%
    07:00 +1°C° 0 mm 2 mps 766 mmHg 71%
    08:00 +2°C° 0 mm 2 mps 766 mmHg 71%
    09:00 +3°C° 0 mm 2 mps 766 mmHg 70%
    10:00 +5°C° 0 mm 2 mps 765 mmHg 69%
    11:00 +6°C° 0 mm 2 mps 765 mmHg 68%
    12:00 +7°C° 0 mm 2 mps 765 mmHg 68%
    13:00 +8°C° 0 mm 2 mps 764 mmHg 69%
    14:00 +8°C° 0 mm 2 mps 764 mmHg 69%
    15:00 +7°C° 0 mm 2 mps 763 mmHg 74%
    16:00 +8°C° 0 mm 1 mps 763 mmHg 79%
    17:00 +7°C° 0 mm 1 mps 763 mmHg 84%
    18:00 +6°C° 0 mm 1 mps 763 mmHg 85%
    19:00 +6°C° 0 mm 1 mps 763 mmHg 86%
    20:00 +6°C° 0 mm 1 mps 763 mmHg 88%
    21:00 +6°C° 0 mm 1 mps 762 mmHg 88%
    22:00 +6°C° 0 mm 1 mps 762 mmHg 88%
    23:00 +6°C° 0 mm 1 mps 762 mmHg 88%

    25 November, Sunday

    Time Temperature Precipitation Wind Pressure Humidity
    00:00 +5°C° 0 mm 2 mps 762 mmHg 88%
    01:00 +5°C° 0 mm 2 mps 761 mmHg 88%
    02:00 +5°C° 0 mm 2 mps 761 mmHg 88%
    03:00 +5°C° 0 mm 2 mps 761 mmHg 88%
    04:00 +5°C° 0 mm 2 mps 760 mmHg 88%
    05:00 +5°C° 0 mm 2 mps 760 mmHg 88%
    06:00 +5°C° 0 mm 2 mps 760 mmHg 88%
    07:00 +4°C° 0 mm 3 mps 760 mmHg 88%
    08:00 +4°C° 0 mm 3 mps 760 mmHg 88%
    09:00 +5°C° 0 mm 3 mps 759 mmHg 80%
    10:00 +7°C° 0 mm 4 mps 759 mmHg 73%
    11:00 +8°C° 0 mm 4 mps 759 mmHg 65%
    12:00 +10°C° 0 mm 4 mps 759 mmHg 62%
    13:00 +10°C° 0 mm 4 mps 758 mmHg 59%
    14:00 +11°C° 0 mm 4 mps 757 mmHg 56%
    15:00 +10°C° 0 mm 4 mps 757 mmHg 60%
    16:00 +8°C° 0 mm 4 mps 757 mmHg 65%
    17:00 +8°C° 0 mm 3 mps 757 mmHg 69%
    18:00 +7°C° 0 mm 4 mps 756 mmHg 70%
    19:00 +7°C° 0 mm 4 mps 756 mmHg 71%
    20:00 +6°C° 0 mm 4 mps 756 mmHg 72%
    21:00 +6°C° 0 mm 4 mps 756 mmHg 72%
    22:00 +6°C° 0 mm 4 mps 756 mmHg 73%
    23:00 +6°C° 0 mm 4 mps 755 mmHg 73%

    26 November, Monday

    Time Temperature Precipitation Wind Pressure Humidity
    00:00 +7°C° 0 mm 3 mps 755 mmHg 73%
    01:00 +7°C° 0 mm 3 mps 755 mmHg 73%
    02:00 +7°C° 0 mm 3 mps 755 mmHg 73%
    03:00 +7°C° 0 mm 3 mps 754 mmHg 72%
    04:00 +7°C° 0 mm 3 mps 754 mmHg 72%
    05:00 +7°C° 0 mm 2 mps 754 mmHg 72%
    06:00 +7°C° 0 mm 2 mps 754 mmHg 72%
    07:00 +7°C° 0 mm 2 mps 754 mmHg 72%
    08:00 +7°C° 0 mm 2 mps 754 mmHg 72%
    09:00 +8°C° 0.1 mm 2 mps 754 mmHg 71%
    10:00 +9°C° 0.1 mm 2 mps 754 mmHg 71%
    11:00 +9°C° 0.1 mm 2 mps 754 mmHg 70%
    12:00 +10°C° 0.2 mm 2 mps 754 mmHg 72%
    13:00 +11°C° 0.2 mm 1 mps 754 mmHg 73%
    14:00 +11°C° 0.2 mm 1 mps 753 mmHg 74%
    15:00 +10°C° 0 mm 1 mps 753 mmHg 77%
    16:00 +10°C° 0 mm 1 mps 753 mmHg 80%
    17:00 +9°C° 0 mm 0 mps 753 mmHg 83%
    18:00 +9°C° 0 mm 1 mps 753 mmHg 85%
    19:00 +9°C° 0 mm 1 mps 753 mmHg 86%
    20:00 +8°C° 0 mm 1 mps 753 mmHg 88%
    21:00 +8°C° 0 mm 1 mps 753 mmHg 88%
    22:00 +8°C° 0 mm 1 mps 753 mmHg 89%
    23:00 +8°C° 0 mm 1 mps 753 mmHg 89%
    Show more